Regional Weather Roundup
Issued by NWS Austin/San Antonio, TX

Home | Current Version | Previous Version | Text Only | Print | Product List | Glossary On
Versions: 1 2 3 4 5 6 7 8 9 10 11 12 13 14 15 16 17 18 19 20 21 22 23 24 25 26 27 28 29 30 31 32 33 34 35 36 37 38 39 40 41 42 43 44 45 46 47 48 49 50
000
ASUS44 KEWX 261902
RWREWX
SOUTH TEXAS REGIONAL WEATHER ROUNDUP
NATIONAL WEATHER SERVICE AUSTIN/SAN ANTONIO TX
200 PM CDT FRI MAY 26 2017

NOTE: "FAIR" INDICATED FEW OR NO CLOUDS BELOW 12,000 FEET WITH NO
SIGNIFICANT WEATHER AND/OR OBSTRUCTIONS TO VISIBILITY.

* - THESE STATIONS ARE NOT NWS OR FAA STATIONS...AND ARE NOT SUBJECT
    TO NWS AND FAA QUALITY CONTROL.

TXZ171-172-183>190-262000-
TEXAS HILL COUNTRY AND EDWARDS PLATEAU

CITY           SKY/WX    TMP DP  RH WIND       PRES   REMARKS
JUNCTION       SUNNY     93  69  45 SW10      29.86F HX  98
*LLANO         NOT AVBL
BURNET         NOT AVBL
*HORSESHOE BAY NOT AVBL
*KERRVILLE     CLOUDY    79  74  86 S10       29.91F
*FREDERICKSBRG NOT AVBL
*ROCKSPRINGS   NOT AVBL
*BOERNE STAGE  CLOUDY    79  72  78 S7        29.91F
*CASTROVILLE   CLOUDY    85  71  63 SE6       29.88F HX  90
HONDO          CLOUDY    85  74  69 VRB3      29.88S HX  92
*UVALDE        MOSUNNY   85  73  67 S5        29.88F HX  91
DEL RIO        SUNNY     90  72  55 VRB6      29.84F HX  97
LAUGHLIN AFB   MOSUNNY   90  74  59 SE7       29.85F HX  99
CARRIZO SPRGS  CLOUDY    88  72  58 CALM      29.83F HX  94
*EAGLE PASS    NOT AVBL
$$

TXZ173-191>194-202-209-217>225-228-262000-
CENTRAL AND SOUTH CENTRAL TEXAS

CITY           SKY/WX    TMP DP  RH WIND       PRES   REMARKS
GEORGETOWN     CLOUDY    82  72  69 S15       29.87F
AUSTIN/BERGSTM CLOUDY    85  74  69 S14       29.86F HX  92
AUSTIN/MABRY   CLOUDY    83  73  72 S8        29.88F
*AUSTIN/EXEC   NOT AVBL
*LAGO VISTA    CLOUDY    80  74  81 S7        29.90S
SAN MARCOS     CLOUDY    84  73  70 SW10      29.88F HX  91
NEW BRAUNFELS  CLOUDY    89  74  60 SW9       29.86F HX  98
RANDOLPH AFB   PTSUNNY   88  74  62 S7        29.86F HX  97
PT SAN ANTONIO PTSUNNY   85  73  67 S8        29.86F HX  92
SAN ANTONIO    CLOUDY    84  73  69 S7        29.88F HX  90
STINSON FIELD  CLOUDY    90  73  57 S9        29.84F HX  98
*LA GRANGE     NOT AVBL
*GIDDINGS      CLOUDY    87  72  60 S8G17     29.88S HX  93
*GONZALES      NOT AVBL
$$

TXZ163>164-176>182-195>201-210>213-226-227-235-262000-
SOUTHEAST TEXAS

CITY           SKY/WX    TMP DP  RH WIND       PRES   REMARKS
COLLEGE STN    CLOUDY    87  73  62 S16G24    29.86F HX  94
*BRYAN         CLOUDY    87  73  62 S17G23    29.88F HX  94
*CALDWELL      NOT AVBL
*CROCKETT      NOT AVBL
*BRENHAM       NOT AVBL
HUNTSVILLE     CLOUDY    88  71  57 S16G24    29.88F HX  94
CONROE         PTSUNNY   89  72  56 S16       29.88F HX  96
HOUSTON BUSH   PTSUNNY   90  73  57 S13G22    29.89F HX  98
HOUSTON HOBBY  PTSUNNY   86  74  67 SE15      29.90F HX  94
*HOUSTON SW AP CLOUDY    85  74  68 S8G16     29.91F HX  93
PEARLAND       CLOUDY    88  73  61 S14       29.92F HX  95
HOUSTON HOOKS  PTSUNNY   90  74  59 S16G22    29.88F HX  99
ELLINGTON FLD  PTSUNNY   90  77  66 S13       29.91F HX 102
SUGAR LAND     CLOUDY    88  75  65 S14G22    29.89F HX  97
*HOUSTON EXEC  PTSUNNY   90  75  62 S20       29.90F HAZE    HX 100
*CLEVELAND MUN NOT AVBL
*WHARTON       NOT AVBL
*COLUMBUS      CLOUDY    86  74  66 S14G21    29.89F HX  93
*EAGLE LAKE    CLOUDY    86  77  73 S16       29.88F HX  97
$$

TXZ214>216-236>238-262000-
THE UPPER TEXAS COAST

CITY           SKY/WX    TMP DP  RH WIND       PRES   REMARKS
*ORANGE        PTSUNNY   84  74  70 S13G21    29.96F HX  91
PORT ARTHUR    PTSUNNY   86  73  65 S15G22    29.94F HX  93
GALVESTON      PTSUNNY   86  78  77 S15       29.94S HX  98
ANGLETON       CLOUDY    86  75  69 S16G22    29.91F HX  95
*BAY CITY      CLOUDY    84  75  74 SE12      29.90F HX  92
PALACIOS       CLOUDY    82  75  79 S16       29.89F
$$

TXZ229>234-239>247-262000-
TEXAS COASTAL BEND AND RIO GRANDE PLAINS

CITY           SKY/WX    TMP DP  RH WIND       PRES   REMARKS
VICTORIA       PTSUNNY   87  76  69 SE21      29.87F HX  97
*BEEVILLE      CLOUDY    90  77  66 SE14      29.85F HX 103
ROCKPORT       CLOUDY    85  76  74 SE17      29.86F HX  94
*PORT ARANSAS  NOT AVBL
*PORT LAVACA   CLOUDY    83  77  82 S14       29.89S HX  93
*INGLESIDE     CLOUDY    87  77  74 SE20G25   29.85F HX  98
CORPUS CHRISTI CLOUDY    89  79  72 S17       29.83F HX 104
CORPUS NAS     PTSUNNY   90  79  70 SE22G31   29.83F HX 106
*ROBSTOWN      NOT AVBL
ALICE          PTSUNNY   95  74  50 SE12G23   29.81F HX 105
KINGSVILLE NAS NOT AVBL
COTULLA        PTSUNNY   95  71  45 SE12      29.82F HX 102
*FAITH RANCH   CLOUDY    88  72  58 SE5       29.84F HX  94
LAREDO         CLOUDY    91  75  59 E6        29.82F HX 101
$$

TXZ248>255-262000-
DEEP SOUTH TEXAS

CITY           SKY/WX    TMP DP  RH WIND       PRES   REMARKS
BROWNSVILLE    CLOUDY    92  77  61 S20       29.83F HX 105
PORT ISABEL    PTSUNNY   92  77  61 S22G31    29.82F HX 105
*SOUTH PADRE   NOT AVBL
HARLINGEN      MOSUNNY   96  77  54 S20G31    29.80F HX 111
*HEBBRONVILLE  NOT AVBL
MCALLEN        MOSUNNY   98  76  49 SE18G29   29.80F HX 112
*WESLACO       NOT AVBL
FALFURRIAS     MOSUNNY   97  72  44 SE15G21   29.79F HX 105
EDINBURG       NOT AVBL
*ZAPATA        MOSUNNY   94  72  48 SE6       29.80F HX 101
$$

TXZ213>215-236>238-242>244-246-247-251-254-255-262000-
CMAN STATIONS

STATION/POSITION TIME  TEMP    WIND        PRES    WAVE
                       AIR SEA DIR/SP/G            HT/PER
                 (UTC) (F)     (DEG/KT/KT) (MB)    (FT/S)
SABINE PASS      1830   81 81  160/ 13/ 17 1015.8
SEA RIM ST PARK  1800   81     170/ 11/ 13 1014.9
NORTH JETTY/GLS  1830      79  160/ 14/ 15 1013.4
EAGLE POINT      1830   81 78  200/ 14/ 17 1013.4
MORGANS POINT    1830   83 78  160/ 11/ 16 1013.1
MISSION/ARANSAS  1800   81                 1012.0
PORT O`CONNOR    1830   80     140/ 13/ 15 1011.9
PORT ARANSAS     1800   80 80  130/ 12/ 13 1012.0
MALAQUITE BEACH  1830   80 81  120/ 14/ 16 1011.8
BAFFIN BAY       1830   83 83              1010.7
PORT ISABEL      1830   83 81  150/ 21/ 27 1010.3
$$



USA.gov is the U.S. government's official web portal to all federal, state and local government web resources and services.